Year,Month,Day,Hour,Minute,Value (Times are PST for temperature in C)
2009,04,21,00,00,10.90
2009,04,21,00,01,10.90
2009,04,21,00,02,10.90
2009,04,21,00,03,10.90
2009,04,21,00,04,10.90
2009,04,21,00,05,10.90
2009,04,21,00,06,10.90
2009,04,21,00,07,11.00
2009,04,21,00,08,11.10
2009,04,21,00,09,11.10
2009,04,21,00,10,11.10
2009,04,21,00,11,11.10
2009,04,21,00,12,11.10
2009,04,21,00,13,11.10
2009,04,21,00,14,11.10
2009,04,21,00,15,11.10
2009,04,21,00,16,11.10
2009,04,21,00,17,11.10
2009,04,21,00,18,11.10
2009,04,21,00,19,11.10
2009,04,21,00,20,11.10
2009,04,21,00,21,11.10
2009,04,21,00,22,11.10
2009,04,21,00,23,11.10
2009,04,21,00,24,11.10
2009,04,21,00,25,11.10
2009,04,21,00,26,11.10
2009,04,21,00,27,11.10
2009,04,21,00,28,11.10
2009,04,21,00,29,11.10
2009,04,21,00,30,11.10
2009,04,21,00,31,11.20
2009,04,21,00,32,11.20
2009,04,21,00,33,11.30
2009,04,21,00,34,11.30
2009,04,21,00,35,11.40
2009,04,21,00,36,11.40
2009,04,21,00,37,11.30
2009,04,21,00,38,11.20
2009,04,21,00,39,11.10
2009,04,21,00,40,11.00
2009,04,21,00,41,10.90
2009,04,21,00,42,10.70
2009,04,21,00,43,10.60
2009,04,21,00,44,10.50
2009,04,21,00,45,10.40
2009,04,21,00,46,10.30
2009,04,21,00,47,10.20
2009,04,21,00,48,10.20
2009,04,21,00,49,10.10
2009,04,21,00,50,10.10
2009,04,21,00,51,10.10
2009,04,21,00,52,10.00
2009,04,21,00,53,9.90
2009,04,21,00,54,9.90
2009,04,21,00,55,9.90
2009,04,21,00,56,9.90
2009,04,21,00,57,9.90
2009,04,21,00,58,9.90
2009,04,21,00,59,9.90
2009,04,21,01,00,9.90
2009,04,21,01,01,9.80
2009,04,21,01,02,9.90
2009,04,21,01,03,9.90
2009,04,21,01,04,9.90
2009,04,21,01,05,9.90
2009,04,21,01,06,9.90
2009,04,21,01,07,9.90
2009,04,21,01,08,9.90
2009,04,21,01,09,9.90
2009,04,21,01,10,9.90
2009,04,21,01,11,9.90
2009,04,21,01,12,9.90
2009,04,21,01,13,9.90
2009,04,21,01,14,9.90
2009,04,21,01,15,9.90
2009,04,21,01,16,9.90
2009,04,21,01,17,9.90
2009,04,21,01,18,9.90
2009,04,21,01,19,9.90
2009,04,21,01,20,9.90
2009,04,21,01,21,9.90
2009,04,21,01,22,9.90
2009,04,21,01,23,9.90
2009,04,21,01,24,9.90
2009,04,21,01,25,9.90
2009,04,21,01,26,9.90
2009,04,21,01,27,9.90
2009,04,21,01,28,9.90
2009,04,21,01,29,9.90
2009,04,21,01,30,9.90
2009,04,21,01,31,9.90
2009,04,21,01,32,9.90
2009,04,21,01,33,9.90
2009,04,21,01,34,9.90
2009,04,21,01,35,9.90
2009,04,21,01,36,9.90
2009,04,21,01,37,9.90
2009,04,21,01,38,9.90
2009,04,21,01,39,9.90
2009,04,21,01,40,9.90
2009,04,21,01,41,9.90
2009,04,21,01,42,9.90
2009,04,21,01,43,9.90
2009,04,21,01,44,9.90
2009,04,21,01,45,9.90
2009,04,21,01,46,9.90
2009,04,21,01,47,9.90
2009,04,21,01,48,9.90
2009,04,21,01,49,9.90
2009,04,21,01,50,9.90
2009,04,21,01,51,9.90
2009,04,21,01,52,9.90
2009,04,21,01,53,9.90
2009,04,21,01,54,9.90
2009,04,21,01,55,9.90
2009,04,21,01,56,9.90
2009,04,21,01,57,10.00
2009,04,21,01,58,10.10
2009,04,21,01,59,10.10
2009,04,21,02,00,10.10
2009,04,21,02,01,10.10
2009,04,21,02,02,10.10
2009,04,21,02,03,10.10
2009,04,21,02,04,10.10
2009,04,21,02,05,10.10
2009,04,21,02,06,10.10
2009,04,21,02,07,10.10
2009,04,21,02,08,10.10
2009,04,21,02,09,10.10
2009,04,21,02,10,10.10
2009,04,21,02,11,10.10
2009,04,21,02,12,10.10
2009,04,21,02,13,10.10
2009,04,21,02,14,10.10
2009,04,21,02,15,10.10
2009,04,21,02,16,10.10
2009,04,21,02,17,10.10
2009,04,21,02,18,10.10
2009,04,21,02,19,10.10
2009,04,21,02,20,10.10
2009,04,21,02,21,10.10
2009,04,21,02,22,10.10
2009,04,21,02,23,10.10
2009,04,21,02,24,9.90
2009,04,21,02,25,9.90
2009,04,21,02,26,9.90
2009,04,21,02,27,9.90
2009,04,21,02,28,9.90
2009,04,21,02,29,9.90
2009,04,21,02,30,9.90
2009,04,21,02,31,9.90
2009,04,21,02,32,9.90
2009,04,21,02,33,9.90
2009,04,21,02,34,9.90
2009,04,21,02,35,9.90
2009,04,21,02,36,9.90
2009,04,21,02,37,9.90
2009,04,21,02,38,9.90
2009,04,21,02,39,9.90
2009,04,21,02,40,9.90
2009,04,21,02,41,9.90
2009,04,21,02,42,9.90
2009,04,21,02,43,9.90
2009,04,21,02,44,9.90
2009,04,21,02,45,9.90
2009,04,21,02,46,9.90
2009,04,21,02,47,9.90
2009,04,21,02,48,9.80
2009,04,21,02,49,9.80
2009,04,21,02,50,9.80
2009,04,21,02,51,9.70
2009,04,21,02,52,9.70
2009,04,21,02,53,9.70
2009,04,21,02,54,9.70
2009,04,21,02,55,9.70
2009,04,21,02,56,9.70
2009,04,21,02,57,9.70
2009,04,21,02,58,9.60
2009,04,21,02,59,9.60
2009,04,21,03,00,9.60
2009,04,21,03,01,9.60
2009,04,21,03,02,9.60
2009,04,21,03,03,9.60
2009,04,21,03,04,9.60
2009,04,21,03,05,9.60
2009,04,21,03,06,9.70
2009,04,21,03,07,9.70
2009,04,21,03,08,9.70
2009,04,21,03,09,9.70
2009,04,21,03,10,9.70
2009,04,21,03,11,9.70
2009,04,21,03,12,9.70
2009,04,21,03,13,9.70
2009,04,21,03,14,9.70
2009,04,21,03,15,9.70
2009,04,21,03,16,9.70
2009,04,21,03,17,9.80
2009,04,21,03,18,9.80
2009,04,21,03,19,9.80
2009,04,21,03,20,9.80
2009,04,21,03,21,9.80
2009,04,21,03,22,9.80
2009,04,21,03,23,9.80
2009,04,21,03,24,9.80
2009,04,21,03,25,9.80
2009,04,21,03,26,9.80
2009,04,21,03,27,9.80
2009,04,21,03,28,9.80
2009,04,21,03,29,9.80
2009,04,21,03,30,9.90
2009,04,21,03,31,9.80
2009,04,21,03,32,9.80
2009,04,21,03,33,9.80
2009,04,21,03,34,9.80
2009,04,21,03,35,9.80
2009,04,21,03,36,9.80
2009,04,21,03,37,9.90
2009,04,21,03,38,9.90
2009,04,21,03,39,9.90
2009,04,21,03,40,9.90
2009,04,21,03,41,9.90
2009,04,21,03,42,9.90
2009,04,21,03,43,9.90
2009,04,21,03,44,9.90
2009,04,21,03,45,9.90
2009,04,21,03,46,9.90
2009,04,21,03,47,9.90
2009,04,21,03,48,9.90
2009,04,21,03,49,9.90
2009,04,21,03,50,9.90
2009,04,21,03,51,9.90
2009,04,21,03,52,9.90
2009,04,21,03,53,9.90
2009,04,21,03,54,9.90
2009,04,21,03,55,9.80
2009,04,21,03,56,9.80
2009,04,21,03,57,9.80
2009,04,21,03,58,9.70
2009,04,21,03,59,9.70
2009,04,21,04,00,9.70
2009,04,21,04,01,9.70
2009,04,21,04,02,9.70
2009,04,21,04,03,9.70
2009,04,21,04,04,9.70
2009,04,21,04,05,9.70
2009,04,21,04,06,9.70
2009,04,21,04,07,9.70
2009,04,21,04,08,9.70
2009,04,21,04,09,9.70
2009,04,21,04,10,9.70
2009,04,21,04,11,9.70
2009,04,21,04,12,9.80
2009,04,21,04,13,9.80
2009,04,21,04,14,9.80
2009,04,21,04,15,9.80
2009,04,21,04,16,9.80
2009,04,21,04,17,9.80
2009,04,21,04,18,9.80
2009,04,21,04,19,9.80
2009,04,21,04,20,9.70
2009,04,21,04,21,9.70
2009,04,21,04,22,9.70
2009,04,21,04,23,9.70
2009,04,21,04,24,9.70
2009,04,21,04,25,9.60
2009,04,21,04,26,9.60
2009,04,21,04,27,9.60
2009,04,21,04,28,9.70
2009,04,21,04,29,9.70
2009,04,21,04,30,9.70
2009,04,21,04,31,9.70
2009,04,21,04,32,9.70
2009,04,21,04,33,9.80
2009,04,21,04,34,9.80
2009,04,21,04,35,9.80
2009,04,21,04,36,9.80
2009,04,21,04,37,9.80
2009,04,21,04,38,9.80
2009,04,21,04,39,9.80
2009,04,21,04,40,9.80
2009,04,21,04,41,9.80
2009,04,21,04,42,9.80
2009,04,21,04,43,9.80
2009,04,21,04,44,9.70
2009,04,21,04,45,9.70
2009,04,21,04,46,9.70
2009,04,21,04,47,9.70
2009,04,21,04,48,9.70
2009,04,21,04,49,9.70
2009,04,21,04,50,9.70
2009,04,21,04,51,9.70
2009,04,21,04,52,9.70
2009,04,21,04,53,9.70
2009,04,21,04,54,9.70
2009,04,21,04,55,9.70
2009,04,21,04,56,9.60
2009,04,21,04,57,9.60
2009,04,21,04,58,9.60
2009,04,21,04,59,9.60
2009,04,21,05,00,9.60
2009,04,21,05,01,9.60
2009,04,21,05,02,9.60
2009,04,21,05,03,9.60
2009,04,21,05,04,9.60
2009,04,21,05,05,9.60
2009,04,21,05,06,9.60
2009,04,21,05,07,9.70
2009,04,21,05,08,9.70
2009,04,21,05,09,9.70
2009,04,21,05,10,9.70
2009,04,21,05,11,9.70
2009,04,21,05,12,9.70
2009,04,21,05,13,9.70
2009,04,21,05,14,9.60
2009,04,21,05,15,9.60
2009,04,21,05,16,9.60
2009,04,21,05,17,9.60
2009,04,21,05,18,9.70
2009,04,21,05,19,9.70
2009,04,21,05,20,9.70
2009,04,21,05,21,9.70
2009,04,21,05,22,9.70
2009,04,21,05,23,9.80
2009,04,21,05,24,9.80
2009,04,21,05,25,9.70
2009,04,21,05,26,9.70
2009,04,21,05,27,9.70
2009,04,21,05,28,9.60
2009,04,21,05,29,9.60
2009,04,21,05,30,9.50
2009,04,21,05,31,9.50
2009,04,21,05,32,9.50
2009,04,21,05,33,9.50
2009,04,21,05,34,9.50
2009,04,21,05,35,9.40
2009,04,21,05,36,9.40
2009,04,21,05,37,9.40
2009,04,21,05,38,9.40
2009,04,21,05,39,9.30
2009,04,21,05,40,9.40
2009,04,21,05,41,9.40
2009,04,21,05,42,9.30
2009,04,21,05,43,9.30
2009,04,21,05,44,9.20
2009,04,21,05,45,9.10
2009,04,21,05,46,9.10
2009,04,21,05,47,9.00
2009,04,21,05,48,9.00
2009,04,21,05,49,8.90
2009,04,21,05,50,8.80
2009,04,21,05,51,8.80
2009,04,21,05,52,8.70
2009,04,21,05,53,8.60
2009,04,21,05,54,8.60
2009,04,21,05,55,8.50
2009,04,21,05,56,8.40
2009,04,21,05,57,8.40
2009,04,21,05,58,8.40
2009,04,21,05,59,8.30
2009,04,21,06,00,8.30
2009,04,21,06,01,8.30
2009,04,21,06,02,8.30
2009,04,21,06,03,8.20
2009,04,21,06,04,8.20
2009,04,21,06,05,8.20
2009,04,21,06,06,8.20
2009,04,21,06,07,8.20
2009,04,21,06,08,8.20
2009,04,21,06,09,8.20
2009,04,21,06,10,8.30
2009,04,21,06,11,8.40
2009,04,21,06,12,8.40
2009,04,21,06,13,8.50
2009,04,21,06,14,8.50
2009,04,21,06,15,8.50
2009,04,21,06,16,8.50
2009,04,21,06,17,8.50
2009,04,21,06,18,8.50
2009,04,21,06,19,8.50
2009,04,21,06,20,8.50
2009,04,21,06,21,8.60
2009,04,21,06,22,8.60
2009,04,21,06,23,8.70
2009,04,21,06,24,8.70
2009,04,21,06,25,8.70
2009,04,21,06,26,8.80
2009,04,21,06,27,8.80
2009,04,21,06,28,8.90
2009,04,21,06,29,8.90
2009,04,21,06,30,9.00
2009,04,21,06,31,9.00
2009,04,21,06,32,9.00
2009,04,21,06,33,9.00
2009,04,21,06,34,8.90
2009,04,21,06,35,8.90
2009,04,21,06,36,8.90
2009,04,21,06,37,8.90
2009,04,21,06,38,8.90
2009,04,21,06,39,8.90
2009,04,21,06,40,8.90
2009,04,21,06,41,8.90
2009,04,21,06,42,8.90
2009,04,21,06,43,8.80
2009,04,21,06,44,8.80
2009,04,21,06,45,8.80
2009,04,21,06,46,8.80
2009,04,21,06,47,8.80
2009,04,21,06,48,8.80
2009,04,21,06,49,8.80
2009,04,21,06,50,8.80
2009,04,21,06,51,8.80
2009,04,21,06,52,8.70
2009,04,21,06,53,8.70
2009,04,21,06,54,8.70
2009,04,21,06,55,8.60
2009,04,21,06,56,8.60
2009,04,21,06,57,8.50
2009,04,21,06,58,8.50
2009,04,21,06,59,8.50
2009,04,21,07,00,8.40
2009,04,21,07,01,8.40
2009,04,21,07,02,8.40
2009,04,21,07,03,8.40
2009,04,21,07,04,8.40
2009,04,21,07,05,8.50
2009,04,21,07,06,8.50
2009,04,21,07,07,8.50
2009,04,21,07,08,8.60
2009,04,21,07,09,8.70
2009,04,21,07,10,8.70
2009,04,21,07,11,8.80
2009,04,21,07,12,8.90
2009,04,21,07,13,9.00
2009,04,21,07,14,9.10
2009,04,21,07,15,9.20
2009,04,21,07,16,9.20
2009,04,21,07,17,9.30
2009,04,21,07,18,9.40
2009,04,21,07,19,9.40
2009,04,21,07,20,9.50
2009,04,21,07,21,9.60
2009,04,21,07,22,9.70
2009,04,21,07,23,9.70
2009,04,21,07,24,9.80
2009,04,21,07,25,9.80
2009,04,21,07,26,9.90
2009,04,21,07,27,9.90
2009,04,21,07,28,9.90
2009,04,21,07,29,9.90
2009,04,21,07,30,9.90
2009,04,21,07,31,9.80
2009,04,21,07,32,9.70
2009,04,21,07,33,9.60
2009,04,21,07,34,9.40
2009,04,21,07,35,9.30
2009,04,21,07,36,9.20
2009,04,21,07,37,9.20
2009,04,21,07,38,9.10
2009,04,21,07,39,9.00
2009,04,21,07,40,8.90
2009,04,21,07,41,8.90
2009,04,21,07,42,8.80
2009,04,21,07,43,8.70
2009,04,21,07,44,8.70
2009,04,21,07,45,8.70
2009,04,21,07,46,8.70
2009,04,21,07,47,8.70
2009,04,21,07,48,8.80
2009,04,21,07,49,8.80
2009,04,21,07,50,8.80
2009,04,21,07,51,8.80
2009,04,21,07,52,8.70
2009,04,21,07,53,8.70
2009,04,21,07,54,8.80
2009,04,21,07,55,8.80
2009,04,21,07,56,8.80
2009,04,21,07,57,8.90
2009,04,21,07,58,9.00
2009,04,21,07,59,9.00
2009,04,21,08,00,9.20
2009,04,21,08,01,9.30
2009,04,21,08,02,9.40
2009,04,21,08,03,9.60
2009,04,21,08,04,9.70
2009,04,21,08,05,9.80
2009,04,21,08,06,9.90
2009,04,21,08,07,10.00
2009,04,21,08,08,10.10
2009,04,21,08,09,10.20
2009,04,21,08,10,10.30
2009,04,21,08,11,10.40
2009,04,21,08,12,10.40
2009,04,21,08,13,10.50
2009,04,21,08,14,10.60
2009,04,21,08,15,10.60
2009,04,21,08,16,10.60
2009,04,21,08,17,10.60
2009,04,21,08,18,10.60
2009,04,21,08,19,10.60
2009,04,21,08,20,10.60
2009,04,21,08,21,10.60
2009,04,21,08,22,10.60
2009,04,21,08,23,10.70
2009,04,21,08,24,10.80
2009,04,21,08,25,10.90
2009,04,21,08,26,11.00
2009,04,21,08,27,11.10
2009,04,21,08,28,11.10
2009,04,21,08,29,11.10
2009,04,21,08,30,11.10
2009,04,21,08,31,11.10
2009,04,21,08,32,11.10
2009,04,21,08,33,11.00
2009,04,21,08,34,10.90
2009,04,21,08,35,10.80
2009,04,21,08,36,10.70
2009,04,21,08,37,10.60
2009,04,21,08,38,10.60
2009,04,21,08,39,10.50
2009,04,21,08,40,10.40
2009,04,21,08,41,10.30
2009,04,21,08,42,10.20
2009,04,21,08,43,10.00
2009,04,21,08,44,9.90
2009,04,21,08,45,9.80
2009,04,21,08,46,9.80
2009,04,21,08,47,9.70
2009,04,21,08,48,9.70
2009,04,21,08,49,9.70
2009,04,21,08,50,9.70
2009,04,21,08,51,9.70
2009,04,21,08,52,9.70
2009,04,21,08,53,9.80
2009,04,21,08,54,9.80
2009,04,21,08,55,9.80
2009,04,21,08,56,9.80
2009,04,21,08,57,9.80
2009,04,21,08,58,9.70
2009,04,21,08,59,9.70
2009,04,21,09,00,9.70
2009,04,21,09,01,9.70
2009,04,21,09,02,9.70
2009,04,21,09,03,9.70
2009,04,21,09,04,9.70
2009,04,21,09,05,9.70
2009,04,21,09,06,9.70
2009,04,21,09,07,9.60
2009,04,21,09,08,9.50
2009,04,21,09,09,9.40
2009,04,21,09,10,9.40
2009,04,21,09,11,9.30
2009,04,21,09,12,9.30
2009,04,21,09,13,9.40
2009,04,21,09,14,9.40
2009,04,21,09,15,9.50
2009,04,21,09,16,9.50
2009,04,21,09,17,9.50
2009,04,21,09,18,9.60
2009,04,21,09,19,9.60
2009,04,21,09,20,9.60
2009,04,21,09,21,9.50
2009,04,21,09,22,9.50
2009,04,21,09,23,9.60
2009,04,21,09,24,9.60
2009,04,21,09,25,9.70
2009,04,21,09,26,9.70
2009,04,21,09,27,9.70
2009,04,21,09,28,9.70
2009,04,21,09,29,9.70
2009,04,21,09,30,9.70
2009,04,21,09,31,9.70
2009,04,21,09,32,9.80
2009,04,21,09,33,9.70
2009,04,21,09,34,9.80
2009,04,21,09,35,9.80
2009,04,21,09,36,9.90
2009,04,21,09,37,9.90
2009,04,21,09,38,9.90
2009,04,21,09,39,9.90
2009,04,21,09,40,10.00
2009,04,21,09,41,10.10
2009,04,21,09,42,10.10
2009,04,21,09,43,10.00
2009,04,21,09,44,9.90
2009,04,21,09,45,9.90
2009,04,21,09,46,9.90
2009,04,21,09,47,9.90
2009,04,21,09,48,9.90
2009,04,21,09,49,9.90
2009,04,21,09,50,9.80
2009,04,21,09,51,9.70
2009,04,21,09,52,9.70
2009,04,21,09,53,9.70
2009,04,21,09,54,9.80
2009,04,21,09,55,9.80
2009,04,21,09,56,9.90
2009,04,21,09,57,10.00
2009,04,21,09,58,10.10
2009,04,21,09,59,10.10
2009,04,21,10,00,10.10
2009,04,21,10,01,10.00
2009,04,21,10,02,9.90
2009,04,21,10,03,9.90
2009,04,21,10,04,9.90
2009,04,21,10,05,9.80
2009,04,21,10,06,9.80
2009,04,21,10,07,9.80
2009,04,21,10,08,9.90
2009,04,21,10,09,10.00
2009,04,21,10,10,10.10
2009,04,21,10,11,10.00
2009,04,21,10,12,10.00
2009,04,21,10,13,10.00
2009,04,21,10,14,9.90
2009,04,21,10,15,9.90
2009,04,21,10,16,9.90
2009,04,21,10,17,9.90
2009,04,21,10,18,9.90
2009,04,21,10,19,9.90
2009,04,21,10,20,9.90
2009,04,21,10,21,9.90
2009,04,21,10,22,9.90
2009,04,21,10,23,10.00
2009,04,21,10,24,10.10
2009,04,21,10,25,10.10
2009,04,21,10,26,10.10
2009,04,21,10,27,10.10
2009,04,21,10,28,10.10
2009,04,21,10,29,10.00
2009,04,21,10,30,9.90
2009,04,21,10,31,9.80
2009,04,21,10,32,9.90
2009,04,21,10,33,9.80
2009,04,21,10,34,9.80
2009,04,21,10,35,9.80
2009,04,21,10,36,9.80
2009,04,21,10,37,9.70
2009,04,21,10,38,9.70
2009,04,21,10,39,9.70
2009,04,21,10,40,9.70
2009,04,21,10,41,9.70
2009,04,21,10,42,9.70
2009,04,21,10,43,9.70
2009,04,21,10,44,9.70
2009,04,21,10,45,9.70
2009,04,21,10,46,9.70
2009,04,21,10,47,9.70
2009,04,21,10,48,9.70
2009,04,21,10,49,9.80
2009,04,21,10,50,9.80
2009,04,21,10,51,9.80
2009,04,21,10,52,9.90
2009,04,21,10,53,9.90
2009,04,21,10,54,9.80
2009,04,21,10,55,9.90
2009,04,21,10,56,9.90
2009,04,21,10,57,9.90
2009,04,21,10,58,9.90
2009,04,21,10,59,9.90
2009,04,21,11,00,9.90
2009,04,21,11,01,9.90
2009,04,21,11,02,9.80
2009,04,21,11,03,9.70
2009,04,21,11,04,9.70
2009,04,21,11,05,9.70
2009,04,21,11,06,9.70
2009,04,21,11,07,9.80
2009,04,21,11,08,9.90
2009,04,21,11,09,9.90
2009,04,21,11,10,9.90
2009,04,21,11,11,9.90
2009,04,21,11,12,9.90
2009,04,21,11,13,9.90
2009,04,21,11,14,9.90
2009,04,21,11,15,9.90
2009,04,21,11,16,9.90
2009,04,21,11,17,9.90
2009,04,21,11,18,9.90
2009,04,21,11,19,9.90
2009,04,21,11,20,9.90
2009,04,21,11,21,10.00
2009,04,21,11,22,9.90
2009,04,21,11,23,9.90
2009,04,21,11,24,9.90
2009,04,21,11,25,9.90
2009,04,21,11,26,9.90
2009,04,21,11,27,9.80
2009,04,21,11,28,9.80
2009,04,21,11,29,9.80
2009,04,21,11,30,9.80
2009,04,21,11,31,9.80
2009,04,21,11,32,9.70
2009,04,21,11,33,9.70
2009,04,21,11,34,9.60
2009,04,21,11,35,9.50
2009,04,21,11,36,9.40
2009,04,21,11,37,9.40
2009,04,21,11,38,9.40
2009,04,21,11,39,9.40
2009,04,21,11,40,9.40
2009,04,21,11,41,9.50
2009,04,21,11,42,9.50
2009,04,21,11,43,9.60
2009,04,21,11,44,9.50
2009,04,21,11,45,9.50
2009,04,21,11,46,9.50
2009,04,21,11,47,9.50
2009,04,21,11,48,9.40
2009,04,21,11,49,9.30
2009,04,21,11,50,9.20
2009,04,21,11,51,9.20
2009,04,21,11,52,9.20
2009,04,21,11,53,9.30
2009,04,21,11,54,9.50
2009,04,21,11,55,9.60
2009,04,21,11,56,9.60
2009,04,21,11,57,9.70
2009,04,21,11,58,9.70
2009,04,21,11,59,9.70
2009,04,21,12,00,9.70
2009,04,21,12,01,9.70
2009,04,21,12,02,9.70
2009,04,21,12,03,9.70
2009,04,21,12,04,9.70
2009,04,21,12,05,9.80
2009,04,21,12,06,9.80
2009,04,21,12,07,9.80
2009,04,21,12,08,9.90
2009,04,21,12,09,10.00
2009,04,21,12,10,10.10
2009,04,21,12,11,10.10
2009,04,21,12,12,10.20
2009,04,21,12,13,10.30
2009,04,21,12,14,10.30
2009,04,21,12,15,10.40
2009,04,21,12,16,10.40
2009,04,21,12,17,10.40
2009,04,21,12,18,10.40
2009,04,21,12,19,10.50
2009,04,21,12,20,10.60
2009,04,21,12,21,10.60
2009,04,21,12,22,10.50
2009,04,21,12,23,10.40
2009,04,21,12,24,10.40
2009,04,21,12,25,10.40
2009,04,21,12,26,10.40
2009,04,21,12,27,10.40
2009,04,21,12,28,10.40
2009,04,21,12,29,10.40
2009,04,21,12,30,10.40
2009,04,21,12,31,10.50
2009,04,21,12,32,10.60
2009,04,21,12,33,10.60
2009,04,21,12,34,10.60
2009,04,21,12,35,10.60
2009,04,21,12,36,10.60
2009,04,21,12,37,10.60
2009,04,21,12,38,10.60
2009,04,21,12,39,10.60
2009,04,21,12,40,10.60
2009,04,21,12,41,10.70
2009,04,21,12,42,10.70
2009,04,21,12,43,10.70
2009,04,21,12,44,10.70
2009,04,21,12,45,10.70
2009,04,21,12,46,10.70
2009,04,21,12,47,10.70
2009,04,21,12,48,10.80
2009,04,21,12,49,10.80
2009,04,21,12,50,10.80
2009,04,21,12,51,10.90
2009,04,21,12,52,10.90
2009,04,21,12,53,10.80
2009,04,21,12,54,10.80
2009,04,21,12,55,10.90
2009,04,21,12,56,10.80
2009,04,21,12,57,10.90
2009,04,21,12,58,10.90
2009,04,21,12,59,10.80
2009,04,21,13,00,10.60
2009,04,21,13,01,10.50
2009,04,21,13,02,10.40
2009,04,21,13,03,10.40
2009,04,21,13,04,10.50
2009,04,21,13,05,10.60
2009,04,21,13,06,10.70
2009,04,21,13,07,10.60
2009,04,21,13,08,10.50
2009,04,21,13,09,10.40
2009,04,21,13,10,10.40
2009,04,21,13,11,10.40
2009,04,21,13,12,10.30
2009,04,21,13,13,10.20
2009,04,21,13,14,10.10
2009,04,21,13,15,10.10
2009,04,21,13,16,10.10
2009,04,21,13,17,10.10
2009,04,21,13,18,10.20
2009,04,21,13,19,10.20
2009,04,21,13,20,10.10
2009,04,21,13,21,10.10
2009,04,21,13,22,10.20
2009,04,21,13,23,10.20
2009,04,21,13,24,10.20
2009,04,21,13,25,10.30
2009,04,21,13,26,10.10
2009,04,21,13,27,10.10
2009,04,21,13,28,9.90
2009,04,21,13,29,9.90
2009,04,21,13,30,10.00
2009,04,21,13,31,10.10
2009,04,21,13,32,10.20
2009,04,21,13,33,10.30
2009,04,21,13,34,10.30
2009,04,21,13,35,10.30
2009,04,21,13,36,10.20
2009,04,21,13,37,10.20
2009,04,21,13,38,10.30
2009,04,21,13,39,10.40
2009,04,21,13,40,10.30
2009,04,21,13,41,10.30
2009,04,21,13,42,10.30
2009,04,21,13,43,10.30
2009,04,21,13,44,10.20
2009,04,21,13,45,10.20
2009,04,21,13,46,10.10
2009,04,21,13,47,10.20
2009,04,21,13,48,10.20
2009,04,21,13,49,10.20
2009,04,21,13,50,10.20
2009,04,21,13,51,10.20
2009,04,21,13,52,10.10
2009,04,21,13,53,10.20
2009,04,21,13,54,10.20
2009,04,21,13,55,10.30
2009,04,21,13,56,10.40
2009,04,21,13,57,10.60
2009,04,21,13,58,10.70
2009,04,21,13,59,10.90
2009,04,21,14,00,10.90
2009,04,21,14,01,11.10
2009,04,21,14,02,11.10
2009,04,21,14,03,11.20
2009,04,21,14,04,11.30
2009,04,21,14,05,11.40
2009,04,21,14,06,11.50
2009,04,21,14,07,11.70
2009,04,21,14,08,11.80
2009,04,21,14,09,12.00
2009,04,21,14,10,12.30
2009,04,21,14,11,12.70
2009,04,21,14,12,12.90
2009,04,21,14,13,13.10
2009,04,21,14,14,13.20
2009,04,21,14,15,13.30
2009,04,21,14,16,13.50
2009,04,21,14,17,13.70
2009,04,21,14,18,13.90
2009,04,21,14,19,14.00
2009,04,21,14,20,14.20
2009,04,21,14,21,14.60
2009,04,21,14,22,14.90
2009,04,21,14,23,15.20
2009,04,21,14,24,15.40
2009,04,21,14,25,15.50
2009,04,21,14,26,15.70
2009,04,21,14,27,15.90
2009,04,21,14,28,16.00
2009,04,21,14,29,16.10
2009,04,21,14,30,16.10
2009,04,21,14,31,16.20
2009,04,21,14,32,16.30
2009,04,21,14,33,16.40
2009,04,21,14,34,16.30
2009,04,21,14,35,16.30
2009,04,21,14,36,16.60
2009,04,21,14,37,16.90
2009,04,21,14,38,17.60
2009,04,21,14,39,18.10
2009,04,21,14,40,18.50
2009,04,21,14,41,19.00
2009,04,21,14,42,19.30
2009,04,21,14,43,19.60
2009,04,21,14,44,19.90
2009,04,21,14,45,20.00
2009,04,21,14,46,20.20
2009,04,21,14,47,20.30
2009,04,21,14,48,20.40
2009,04,21,14,49,20.40
2009,04,21,14,50,20.50
2009,04,21,14,51,20.50
2009,04,21,14,52,20.50
2009,04,21,14,53,20.50
2009,04,21,14,54,20.60
2009,04,21,14,55,20.60
2009,04,21,14,56,20.70
2009,04,21,14,57,20.70
2009,04,21,14,58,20.70
2009,04,21,14,59,20.70
2009,04,21,15,00,20.80
2009,04,21,15,01,20.80
2009,04,21,15,02,20.90
2009,04,21,15,03,20.90
2009,04,21,15,04,20.90
2009,04,21,15,05,20.90
2009,04,21,15,06,20.90
2009,04,21,15,07,20.80
2009,04,21,15,08,20.80
2009,04,21,15,09,20.70
2009,04,21,15,10,20.70
2009,04,21,15,11,20.70
2009,04,21,15,12,20.70
2009,04,21,15,13,20.80
2009,04,21,15,14,20.70
2009,04,21,15,15,20.70
2009,04,21,15,16,20.80
2009,04,21,15,17,20.80
2009,04,21,15,18,20.80
2009,04,21,15,19,20.80
2009,04,21,15,20,20.80
2009,04,21,15,21,20.80
2009,04,21,15,22,20.90
2009,04,21,15,23,20.90
2009,04,21,15,24,20.90
2009,04,21,15,25,20.90
2009,04,21,15,26,20.90
2009,04,21,15,27,20.90
2009,04,21,15,28,20.90
2009,04,21,15,29,20.90
2009,04,21,15,30,20.80
2009,04,21,15,31,20.80
2009,04,21,15,32,20.90
2009,04,21,15,33,20.90
2009,04,21,15,34,20.90
2009,04,21,15,35,20.90
2009,04,21,15,36,20.90
2009,04,21,15,37,20.80
2009,04,21,15,38,20.70
2009,04,21,15,39,20.70
2009,04,21,15,40,20.70
2009,04,21,15,41,20.70
2009,04,21,15,42,20.70
2009,04,21,15,43,20.70
2009,04,21,15,44,20.70
2009,04,21,15,45,20.80
2009,04,21,15,46,20.80
2009,04,21,15,47,20.80
2009,04,21,15,48,20.80
2009,04,21,15,49,20.70
2009,04,21,15,50,20.70
2009,04,21,15,51,20.80
2009,04,21,15,52,20.80
2009,04,21,15,53,20.80
2009,04,21,15,54,20.80
2009,04,21,15,55,20.80
2009,04,21,15,56,20.80
2009,04,21,15,57,20.90
2009,04,21,15,58,20.90
2009,04,21,15,59,20.90
2009,04,21,16,00,20.90
2009,04,21,16,01,20.90
2009,04,21,16,02,20.90
2009,04,21,16,03,20.90
2009,04,21,16,04,20.80
2009,04,21,16,05,20.90
2009,04,21,16,06,20.90
2009,04,21,16,07,20.90
2009,04,21,16,08,20.80
2009,04,21,16,09,20.80
2009,04,21,16,10,20.80
2009,04,21,16,11,20.80
2009,04,21,16,12,20.70
2009,04,21,16,13,20.70
2009,04,21,16,14,20.60
2009,04,21,16,15,20.60
2009,04,21,16,16,20.60
2009,04,21,16,17,20.50
2009,04,21,16,18,20.60
2009,04,21,16,19,20.60
2009,04,21,16,20,20.60
2009,04,21,16,21,20.60
2009,04,21,16,22,20.70
2009,04,21,16,23,20.70
2009,04,21,16,24,20.70
2009,04,21,16,25,20.70
2009,04,21,16,26,20.60
2009,04,21,16,27,20.60
2009,04,21,16,28,20.60
2009,04,21,16,29,20.60
2009,04,21,16,30,20.70
2009,04,21,16,31,20.70
2009,04,21,16,32,20.80
2009,04,21,16,33,20.80
2009,04,21,16,34,20.80
2009,04,21,16,35,20.80
2009,04,21,16,36,20.70
2009,04,21,16,37,20.70
2009,04,21,16,38,20.50
2009,04,21,16,39,20.40
2009,04,21,16,40,20.40
2009,04,21,16,41,20.40
2009,04,21,16,42,20.30
2009,04,21,16,43,20.20
2009,04,21,16,44,20.20
2009,04,21,16,45,20.20
2009,04,21,16,46,20.20
2009,04,21,16,47,20.20
2009,04,21,16,48,20.20
2009,04,21,16,49,20.10
2009,04,21,16,50,20.10
2009,04,21,16,51,20.00
2009,04,21,16,52,19.90
2009,04,21,16,53,19.90
2009,04,21,16,54,19.90
2009,04,21,16,55,19.90
2009,04,21,16,56,19.90
2009,04,21,16,57,19.90
2009,04,21,16,58,19.80
2009,04,21,16,59,19.80
2009,04,21,17,00,19.80
2009,04,21,17,01,19.70
2009,04,21,17,02,19.70
2009,04,21,17,03,19.80
2009,04,21,17,04,19.80
2009,04,21,17,05,19.80
2009,04,21,17,06,19.90
2009,04,21,17,07,19.90
2009,04,21,17,08,19.90
2009,04,21,17,09,19.90
2009,04,21,17,10,19.90
2009,04,21,17,11,19.90
2009,04,21,17,12,19.90
2009,04,21,17,13,19.90
2009,04,21,17,14,19.90
2009,04,21,17,15,19.80
2009,04,21,17,16,19.80
2009,04,21,17,17,19.80
2009,04,21,17,18,19.70
2009,04,21,17,19,19.70
2009,04,21,17,20,19.70
2009,04,21,17,21,19.70
2009,04,21,17,22,19.70
2009,04,21,17,23,19.70
2009,04,21,17,24,19.60
2009,04,21,17,25,19.60
2009,04,21,17,26,19.60
2009,04,21,17,27,19.60
2009,04,21,17,28,19.60
2009,04,21,17,29,19.60
2009,04,21,17,30,19.60
2009,04,21,17,31,19.60
2009,04,21,17,32,19.60
2009,04,21,17,33,19.60
2009,04,21,17,34,19.60
2009,04,21,17,35,19.50
2009,04,21,17,36,19.50
2009,04,21,17,37,19.50
2009,04,21,17,38,19.60
2009,04,21,17,39,19.60
2009,04,21,17,40,19.60
2009,04,21,17,41,19.50
2009,04,21,17,42,19.50
2009,04,21,17,43,19.40
2009,04,21,17,44,19.40
2009,04,21,17,45,19.30